| time (UTC) | temp F | wind direction | speed MPH | gust MPH | rain 1hr in | rain 24hr in | rain mn in | humidity % | barometer mb |
| 20260506231552 | 71 | 64 | 10.0 | 18.0 | 0.00 | 0.16 | 0.00 | 50 | 1006.0 |
| 20260506230044 | 72 | 79 | 11.0 | 20.0 | 0.00 | 0.16 | 0.00 | 50 | 1006.0 |
| 20260506224543 | 72 | 66 | 7.0 | 17.0 | 0.00 | 0.16 | 0.00 | 50 | 1005.7 |
| 20260506223043 | 73 | 41 | 10.0 | 19.0 | 0.00 | 0.16 | 0.00 | 50 | 1005.8 |
| 20260506221542 | 73 | 28 | 4.0 | 15.0 | 0.00 | 0.16 | 0.00 | 50 | 1005.8 |
| 20260506220043 | 74 | 39 | 6.0 | 16.0 | 0.00 | 0.16 | 0.00 | 49 | 1005.6 |
| 20260506214545 | 74 | 8 | 5.0 | 15.0 | 0.00 | 0.16 | 0.00 | 48 | 1005.6 |
| 20260506213042 | 73 | 61 | 7.0 | 15.0 | 0.00 | 0.16 | 0.00 | 46 | 1005.9 |
| 20260506211539 | 73 | 45 | 7.0 | 12.0 | 0.00 | 0.16 | 0.00 | 47 | 1006.1 |
| 20260506210038 | 72 | 56 | 5.0 | 15.0 | 0.00 | 0.16 | 0.00 | 52 | 1006.3 |
| 20260506204540 | 70 | 68 | 5.0 | 14.0 | 0.00 | 0.16 | 0.00 | 59 | 1006.4 |
| 20260506203040 | 74 | 103 | 7.0 | 17.0 | 0.00 | 0.16 | 0.00 | 52 | 1006.7 |
| 20260506201539 | 81 | 162 | 5.0 | 10.0 | 0.00 | 0.16 | 0.00 | 35 | 1006.5 |
| 20260506200039 | 81 | 291 | 0.0 | 10.0 | 0.00 | 0.16 | 0.00 | 33 | 1006.6 |
| 20260506194529 | 81 | 31 | 2.0 | 9.0 | 0.00 | 0.16 | 0.00 | 33 | 1006.8 |
| 20260506193026 | 82 | 97 | 2.0 | 7.0 | 0.00 | 0.16 | 0.00 | 32 | 1007.2 |
| 20260506191524 | 83 | 172 | 2.0 | 7.0 | 0.00 | 0.16 | 0.00 | 33 | 1007.5 |
| 20260506190020 | 80 | 123 | 2.0 | 6.0 | 0.00 | 0.16 | 0.00 | 35 | 1007.7 |
| 20260506184518 | 79 | 291 | 4.0 | 7.0 | 0.00 | 0.16 | 0.00 | 37 | 1007.8 |
| 20260506183016 | 79 | 313 | 1.0 | 6.0 | 0.00 | 0.16 | 0.00 | 39 | 1008.1 |
| 20260506181515 | 81 | 169 | 4.0 | 8.0 | 0.00 | 0.16 | 0.00 | 37 | 1008.3 |
| 20260506180014 | 79 | 156 | 2.0 | 7.0 | 0.00 | 0.16 | 0.00 | 38 | 1008.6 |
| 20260506174509 | 78 | 160 | 1.0 | 7.0 | 0.00 | 0.16 | 0.00 | 37 | 1008.9 |
| 20260506173016 | 78 | 220 | 3.0 | 10.0 | 0.00 | 0.16 | 0.00 | 37 | 1008.9 |
| 20260506171506 | 77 | 224 | 2.0 | 9.0 | 0.00 | 0.16 | 0.00 | 39 | 1009.0 |
| 20260506170004 | 77 | 268 | 3.0 | 7.0 | 0.00 | 0.16 | 0.00 | 39 | 1009.4 |
| 20260506164503 | 76 | 134 | 4.0 | 9.0 | 0.00 | 0.16 | 0.00 | 43 | 1009.6 |
| 20260506163107 | 75 | 231 | 2.0 | 8.0 | 0.00 | 0.16 | 0.00 | 43 | 1009.7 |
| 20260506161641 | 74 | 245 | 1.0 | 6.0 | 0.00 | 0.16 | 0.00 | 43 | 1009.7 |
| 20260506160108 | 73 | 247 | 3.0 | 7.0 | 0.00 | 0.16 | 0.00 | 45 | 1009.7 |
| 20260506154555 | 73 | 216 | 0.0 | 3.0 | 0.00 | 0.16 | 0.00 | 46 | 1009.8 |
| 20260506153057 | 71 | 206 | 1.0 | 4.0 | 0.00 | 0.16 | 0.00 | 47 | 1010.0 |
| 20260506151551 | 70 | 214 | 0.0 | 4.0 | 0.00 | 0.16 | 0.00 | 47 | 1010.1 |
| 20260506150050 | 71 | 131 | 0.0 | 4.0 | 0.00 | 0.16 | 0.00 | 48 | 1010.2 |
| 20260506144546 | 70 | 59 | 0.0 | 3.0 | 0.00 | 0.16 | 0.00 | 51 | 1010.1 |
| 20260506143045 | 69 | 18 | 1.0 | 3.0 | 0.00 | 0.16 | 0.00 | 53 | 1010.0 |
| 20260506141539 | 65 | 15 | 0.0 | 1.0 | 0.00 | 0.16 | 0.00 | 63 | 1010.1 |
| 20260506140037 | 63 | 16 | 0.0 | 2.0 | 0.00 | 0.16 | 0.00 | 63 | 1010.1 |
| 20260506134535 | 63 | 16 | 0.0 | 2.0 | 0.00 | 0.16 | 0.00 | 64 | 1009.9 |
| 20260506133033 | 63 | 16 | 0.0 | 1.0 | 0.00 | 0.16 | 0.00 | 65 | 1009.8 |
| 20260506131544 | 61 | 16 | 0.0 | 2.0 | 0.00 | 0.16 | 0.00 | 68 | 1009.7 |
| 20260506130035 | 60 | 16 | 0.0 | 0.0 | 0.00 | 0.16 | 0.00 | 69 | 1009.6 |
| 20260506124530 | 58 | 16 | 0.0 | 2.0 | 0.00 | 0.16 | 0.00 | 69 | 1009.4 |
| 20260506123029 | 58 | 16 | 0.0 | 2.0 | 0.00 | 0.16 | 0.00 | 68 | 1009.5 |
| 20260506121528 | 58 | 16 | 0.0 | 2.0 | 0.00 | 0.16 | 0.00 | 69 | 1009.6 |
| 20260506120029 | 57 | 16 | 2.0 | 3.0 | 0.00 | 0.16 | 0.00 | 69 | 1009.3 |
| 20260506114533 | 57 | 15 | 0.0 | 2.0 | 0.00 | 0.16 | 0.00 | 71 | 1009.3 |
| 20260506113025 | 57 | 15 | 0.0 | 2.0 | 0.00 | 0.16 | 0.00 | 70 | 1009.1 |
| 20260506111524 | 58 | 15 | 1.0 | 3.0 | 0.00 | 0.16 | 0.00 | 69 | 1009.0 |
| 20260506110025 | 58 | 15 | 2.0 | 3.0 | 0.00 | 0.16 | 0.00 | 71 | 1009.0 |
| 20260506104522 | 58 | 15 | 2.0 | 4.0 | 0.00 | 0.16 | 0.00 | 70 | 1009.0 |
| 20260506103022 | 58 | 15 | 2.0 | 4.0 | 0.00 | 0.16 | 0.00 | 70 | 1008.8 |
| 20260506101538 | 58 | 15 | 2.0 | 3.0 | 0.00 | 0.16 | 0.00 | 70 | 1008.9 |
| 20260506100020 | 58 | 15 | 1.0 | 3.0 | 0.00 | 0.16 | 0.00 | 70 | 1008.8 |
| 20260506094523 | 58 | 14 | 1.0 | 3.0 | 0.00 | 0.16 | 0.00 | 70 | 1008.7 |
| 20260506093021 | 58 | 14 | 0.0 | 2.0 | 0.00 | 0.16 | 0.00 | 70 | 1008.8 |
| 20260506091517 | 58 | 14 | 1.0 | 2.0 | 0.00 | 0.16 | 0.00 | 70 | 1008.6 |
| 20260506090015 | 58 | 14 | 0.0 | 1.0 | 0.00 | 0.16 | 0.00 | 71 | 1008.5 |
| 20260506084514 | 57 | 14 | 1.0 | 3.0 | 0.00 | 0.16 | 0.00 | 71 | 1008.5 |
| 20260506083012 | 58 | 14 | 1.0 | 2.0 | 0.00 | 0.16 | 0.00 | 71 | 1008.6 |
| 20260506081510 | 58 | 14 | 0.0 | 2.0 | 0.00 | 0.16 | 0.00 | 70 | 1008.7 |
| 20260506073002 | 60 | 14 | 1.0 | 3.0 | 0.00 | 0.16 | 0.00 | 67 | 1009.1 |
| 20260506071601 | 60 | 14 | 0.0 | 2.0 | 0.00 | 0.16 | 0.00 | 65 | 1009.3 |
| 20260506070103 | 60 | 14 | 1.0 | 4.0 | 0.00 | 0.16 | 0.00 | 65 | 1009.3 |
| 20260506061553 | 61 | 88 | 1.0 | 3.0 | 0.00 | 0.16 | 0.00 | 66 | 1009.7 |
| 20260506044638 | 63 | 141 | 3.0 | 8.0 | 0.00 | 0.16 | 0.16 | 63 | 1009.9 |
| 20260506043047 | 63 | 85 | 1.0 | 7.0 | 0.00 | 0.16 | 0.16 | 66 | 1009.8 |
| 20260506041558 | 63 | 133 | 1.0 | 6.0 | 0.00 | 0.16 | 0.16 | 66 | 1009.6 |
| 20260506040045 | 63 | 85 | 3.0 | 8.0 | 0.00 | 0.16 | 0.16 | 64 | 1009.1 |
| 20260506034620 | 63 | 74 | 3.0 | 15.0 | 0.00 | 0.16 | 0.16 | 61 | 1008.9 |
| 20260506033044 | 63 | 341 | 8.0 | 16.0 | 0.00 | 0.16 | 0.16 | 64 | 1008.4 |
| 20260506031544 | 64 | 312 | 8.0 | 19.0 | 0.00 | 0.16 | 0.16 | 58 | 1007.9 |
| 20260506030043 | 62 | 335 | 8.0 | 23.0 | 0.00 | 0.16 | 0.16 | 64 | 1007.8 |
| 20260506024542 | 64 | 322 | 10.0 | 18.0 | 0.01 | 0.16 | 0.16 | 63 | 1008.4 |
| 20260506023102 | 65 | 354 | 2.0 | 10.0 | 0.01 | 0.16 | 0.16 | 58 | 1008.1 |
| 20260506021541 | 67 | 37 | 10.0 | 21.0 | 0.02 | 0.16 | 0.16 | 48 | 1008.0 |
| 20260506020044 | 67 | 69 | 8.0 | 20.0 | 0.02 | 0.16 | 0.16 | 52 | 1008.2 |
| 20260506014540 | 64 | 326 | 6.0 | 11.0 | 0.02 | 0.15 | 0.15 | 62 | 1008.0 |
| 20260506013041 | 64 | 4 | 6.0 | 12.0 | 0.11 | 0.15 | 0.15 | 60 | 1007.8 |
| 20260506011540 | 64 | 36 | 11.0 | 21.0 | 0.14 | 0.14 | 0.14 | 61 | 1008.0 |
| 20260506010045 | 66 | 91 | 3.0 | 12.0 | 0.13 | 0.13 | 0.13 | 59 | 1008.3 |
| 20260506004559 | 64 | 17 | 8.0 | 12.0 | 0.13 | 0.13 | 0.13 | 68 | 1007.3 |
| 20260506003045 | 71 | 210 | 5.0 | 15.0 | 0.04 | 0.04 | 0.04 | 52 | 1007.3 |
| 20260506001539 | 75 | 145 | 8.0 | 21.0 | 0.00 | 0.00 | 0.00 | 43 | 1005.8 |
| 20260506000035 | 76 | 122 | 5.0 | 11.0 | 0.00 | 0.00 | 0.00 | 44 | 1005.4 |
| 20260505234556 | 76 | 88 | 7.0 | 17.0 | 0.00 | 0.00 | 0.00 | 44 | 1005.1 |
| 20260505233039 | 77 | 110 | 4.0 | 12.0 | 0.00 | 0.00 | 0.00 | 43 | 1004.7 |